User: anonymous   Login
Location: Unspecified
(0.0000°N, 0.0000°E)
Time: 07:29:13
(UTC+00:00)
Language:

ITOS 1 - Orbit

View from above orbital plane
View from above orbital plane
View from above satellite
View from above satellite

Ground track
Ground track

The orbit data is extracted from the following two-line orbital elements,

1 04320U 70008A   21067.92974179 -.00000035  00000-0  58868-4 0  9996
2 04320 101.6515 137.4931 0028828  96.2072  77.1023 12.52062641532775
Epoch (UTC): 08 March 2021 22:18:49
Eccentricity: 0.0028828
inclination: 101.6515°
perigee height: 1433 km
apogee height: 1478 km
right ascension of ascending node: 137.4931°
argument of perigee: 96.2072°
revolutions per day: 12.52062641
mean anomaly at epoch: 77.1023°
orbit number at epoch: 53277

The dashed part of the orbit path shows where the satellite is in the earth's shadow,  

DLR